User: anonymous   Login
Location: Bazugues
(43.4465°N, 0.3432°E)
Time: 23:50:02
(UTC+00:00)
Language:

USA 267 - Orbit

View from above orbital plane
View from above orbital plane
View from above satellite
View from above satellite

Ground track
Ground track

The orbit is defined by the following mean orbital elements,

1 41334U 16010A   26010.75890160 0.00000050  00000-0  89505-4 0    07
2 41334 123.0001  77.6422 0004000 122.9293 237.0707 13.41453668    01
Epoch (UTC): 10 January 2026 18:12:49
Eccentricity: 0.0004000
inclination: 123.0001°
perigee height: 1101 km
apogee height: 1107 km
right ascension of ascending node: 77.6422°
argument of perigee: 122.9293°
revolutions per day: 13.41453668
mean anomaly at epoch: 237.0707°

The dashed part of the orbit path shows where the satellite is in the earth's shadow,  

DLR